Location: Casteau
(50.5142°N, 4.0161°E)
Time: 05:34:51
(UTC+00:00)

Vanguard 1 Rocket - Pass Details

Date: 29 July 2021
Orbit: 650 x 4226 km, 34.3° (Epoch: 21 September)

Event Time Altitude Azimuth Distance (km) Brightness Sun altitude
Rises 07:58:47 0° 195° (SSW) 8,124 12.2 34.5°
Reaches altitude 10° 08:08:27 10° 178° (S) 6,496 12.0 36.0°
Maximum altitude 08:17:36 15° 150° (SSE) 5,225 12.1 37.4°
Drops below altitude 10° 08:24:42 10° 120° (ESE) 4,886 12.3 38.5°
Sets 08:29:56 0° 99° (E) 5,233 12.2 39.3°
